Regional Weather Roundup
Issued by NWS

Home | Current Version | Previous Version | Graphics & Text | Print | Product List | Glossary Off
Versions: 1 2 3 4 5 6 7 8 9 10 11 12 13 14 15 16 17 18 19 20 21 22 23 24 25 26 27 28 29 30 31 32 33 34 35 36 37 38 39 40 41 42 43 44 45 46 47 48 49 50

000
ASUS43 KMPX 132010
RWRMN
WEATHER ROUNDUP FOR MINNESOTA
NATIONAL WEATHER SERVICE TWIN CITIES/CHANHASSEN MN
300 PM CDT SUN JUL 13 2014


NOTE: "FAIR" INDICATES FEW OR NO CLOUDS BELOW 12,000 FEET WITH NO
SIGNIFICANT WEATHER AND/OR OBSTRUCTIONS TO VISIBILITY. N/A MEANS
CURRENT SKY AND/OR WEATHER CONDITIONS ARE NOT AVAILABLE.

MNZ060>063-068>070-132100-
   Twin Cities Metro

CITY           SKY/WX    TMP DP  RH WIND       PRES   REMARKS
TWIN CITIES    PTSUNNY   75  50  41 W13G24    29.93F
ST PAUL        PTSUNNY   75  51  43 W21       29.93F
CRYSTAL        PTSUNNY   76  52  43 W12       29.91F
BLAINE         MOSUNNY   75  52  43 W14G24    29.92F
LAKEVILLE      MOSUNNY   73  54  49 NW10      29.94F
EDEN PRAIRIE   MOSUNNY   75  51  43 W15G23    29.92F
SOUTH ST PAUL  SUNNY     75  47  36 W10G18    29.93F
LAKE ELMO      FAIR      73  52  46 W8G22     29.93F
$$
MNZ001>005-007-008-013>017-022>024-027-028-132100-
   Northwest Minnesota

CITY           SKY/WX    TMP DP  RH WIND       PRES   REMARKS
BEMIDJI        CLOUDY    68  46  45 W22G28    29.89F
HALLOCK        SUNNY     64  48  55 NW20      29.89F
ROSEAU         PTSUNNY   61  52  72 NW15G25   29.88S
WARROAD        PTSUNNY   59  52  77 W21G28    29.87S
THIEF RVR FALL CLOUDY    64  46  52 NW16G23   29.90F
CROOKSTON      PTSUNNY   68  48  49 NW20G28   29.91F
FOSSTON        PTSUNNY   66  46  48 W18G29    29.91F
DETROIT LAKES  SUNNY     72  43  35 NW22G30   29.95F
MOORHEAD       MOSUNNY   73  36  25 NW16G22   29.93F
PARK RAPIDS    CLOUDY    68  44  42 W20G28    29.91F
$$
MNZ006-009>011-018-025>026-132100-
   North Central Minnesota

CITY           SKY/WX    TMP DP  RH WIND       PRES   REMARKS
BAUDETTE       LGT RAIN  56  52  86 NW8G23    29.86R
FLAG ISLAND    LGT RAIN  57  54  88 W14       29.82S
INTL FALLS     LGT RAIN  57  52  83 NW15G31   29.82R
WASKISH        CLOUDY    66  52  59 W18G26    29.86F
BIG FORK       PTSUNNY   64  46  52 W8G18     29.85F
LONGVILLE      CLOUDY    70  45  40 W16G22    29.89F
GRAND RAPIDS   PTSUNNY   66  46  48 W14G20    29.87F
CRANE LAKE     MOSUNNY   64  45  48 W7        29.81F
ORR            CLOUDY    64  43  45 W13G23    29.80F
COOK           MOSUNNY   66  48  52 W13G21    29.83F
$$
MNZ012-019>021-037-132100-
   Northeast Minnesota

CITY           SKY/WX    TMP DP  RH WIND       PRES   REMARKS
DULUTH         PTSUNNY   70  45  40 W17G24    29.85S
ELY            MOSUNNY   64  45  48 W15G28    29.80F
HIBBING        CLOUDY    67  45  45 W13G24    29.85S
EVELETH        MOSUNNY   64  45  48 W16G28    29.85F
DULUTH HARBOR  MOSUNNY   72  48  43 SW20G25   29.84F
TWO HARBORS    PTSUNNY   70  48  46 W14G20    29.81F
SILVER BAY     SUNNY     66  54  63 W8        29.80F
GRAND MARAIS     N/A     52  45  77 W9        29.78S
G MARAIS ARPRT MOSUNNY   61  48  63 SW7       29.81F
$$
MNZ029>031-032-039>041-046>048-054>057-064-132100-
   West Central Minnesota

CITY           SKY/WX    TMP DP  RH WIND       PRES   REMARKS
FERGUS FALLS   MOSUNNY   73  37  27 NW16G23   29.94F
WHEATON        SUNNY     72  45  37 W17G26    29.98F
MORRIS         SUNNY     73  46  38 NW16G24   29.95F
ALEXANDRIA     SUNNY     74  42  31 NW18      29.96F
ELBOW LAKE     FAIR      72  45  37 NW12G24   29.95F
WADENA         MOSUNNY   68  46  45 NW14G22   29.93F
GLENWOOD       SUNNY     73  45  35 NW18G24   29.96F
APPLETON       SUNNY     79  46  31 W15G22    29.96F
BENSON         SUNNY     75  48  38 N17G25    29.96F
ORTONVILLE     SUNNY     75  45  33 NW13G18   29.97F
MADISON        SUNNY     79  48  34 NW16G22   29.97F
WILLMAR        FAIR      75  50  41 NW16G22   29.96F
$$
MNZ033>034-036-042>043-049>051-058-059-132100-
   Central Minnesota

CITY           SKY/WX    TMP DP  RH WIND       PRES   REMARKS
ST CLOUD       MOSUNNY   77  46  33 NW22G29   29.92F
SAUK CENTRE    FAIR      74  45  36 W16       29.95F
PAYNESVILLE    MOSUNNY   70  47  43 SW13      29.95F HAZE
AITKIN         MOSUNNY   73  48  40 W10G17    29.88F
PINE RIVER     MOSUNNY   70  46  43 W14G22    29.93F
BRAINERD       MOSUNNY   76  44  32 W16G25    29.91F
STAPLES        MOSUNNY   72  43  35 W17G28    29.93F
LONG PRAIRIE   FAIR      70  43  37 W14G21    29.95F
LITTLE FALLS   MOSUNNY   72  41  33 W14G22    29.93F
LITCHFIELD     MOSUNNY   77  54  44 W13G23    29.95F
BUFFALO        MOSUNNY   73  51  44 W8G20     29.94F
MAPLE LAKE     MOSUNNY   74  54  49 NW9G18    29.94F
$$
MNZ037-044-045-052-053-132100-
   East Central Minnesota

CITY           SKY/WX    TMP DP  RH WIND       PRES   REMARKS
PRINCETON      MOSUNNY   75  46  35 W18       29.92F
MORA           MOSUNNY   70  45  40 W14       29.92F
CAMBRIDGE      MOSUNNY   75  54  46 W14G22    29.90F
RUSH CITY      MOSUNNY   73  48  40 W15G22    29.91F
MOOSE LAKE     PTSUNNY   72  46  40 W9G21     29.87F
HINCKLEY       FAIR      72  46  40 W14G23    29.90F
CLOQUET        PTSUNNY   70  45  40 W9        29.87F
MCGREGOR       PTSUNNY   68  45  42 W9G20     29.89F
$$
MNZ071>073-080-081-089-090-097-098-132100-
   Southwest Minnesota

CITY           SKY/WX    TMP DP  RH WIND       PRES   REMARKS
MONTEVIDEO     SUNNY     77  46  33 NW16G23   29.97F
GRANITE FALLS  SUNNY     75  50  40 W20G28    29.98F
CANBY          MOSUNNY   78  52  40 NW16G23   29.99F
MARSHALL       SUNNY     77  54  44 NW22      29.96F
REDWOOD FALLS  MOSUNNY   79  55  43 NW20G26   29.95F
OLIVIA         MOSUNNY   77  55  47 W12       29.95F
PIPESTONE      MOSUNNY   79  52  38 NW20      30.01F
WINDOM         MOSUNNY   81  52  36 W17G24    29.98F
WORTHINGTON    MOSUNNY   79  55  44 NW16G25   30.01F
JACKSON        MOSUNNY   79  52  38 NW15G29   29.99F
TRACY          MOSUNNY   76  57  51 NW10G24   29.98F
SLAYTON        PTSUNNY   78  52  40 NW18G24   30.00F
$$
MNZ065>067-074>077-082>085-091>093-132100-
   South Central Minnesota

CITY           SKY/WX    TMP DP  RH WIND       PRES   REMARKS
MANKATO        MOSUNNY   75  52  43 W13G20    29.96F
NEW ULM        SUNNY     75  57  53 W8        29.96F
ST JAMES       SUNNY     79  54  41 NW9       29.97F
FAIRMONT       PTSUNNY   81  52  36 NW16      29.97F
GLENCOE        SUNNY     75  51  43 W10G18    29.94F
FARIBAULT      MOSUNNY   79  46  31 W15       29.96F
OWATONNA       MOSUNNY   75  52  43 W17G23    29.97S
WASECA         MOSUNNY   73  50  43 W12G18    29.98F
ALBERT LEA     MOSUNNY   77  54  44 NW7G20    29.97F
$$
MNZ078>079-086>088-094>096-132100-
   Southeast Minnesota

CITY           SKY/WX    TMP DP  RH WIND       PRES   REMARKS
ROCHESTER      SUNNY     75  52  44 W13G22    29.97F
RED WING       SUNNY     77  46  33 NW13G18   29.92F
STANTON        SUNNY     76  50  40 NW14      29.94F
DODGE CENTER   SUNNY     73  52  46 NW14G22   29.97S
WINONA         SUNNY     77  50  38 NW9       29.93S
AUSTIN           N/A    N/A N/A N/A NW15      29.97S
PRESTON        SUNNY     74  54  49 NW17G23   29.97R
$$
ABBREVIATIONS USED IN REMARKS
   TC - TEMPERATURES IN CELSIUS
  WCI - WIND CHILL INDEX
   HX - HEAT INDEX
  VSB - VISIBILITY
$$


USA.gov is the U.S. government's official web portal to all federal, state and local government web resources and services.